Marshfield, WI

3:11 AM CDT on August 19, 2017 (GMT -0500)
Marshfield Municipal

Weather History for KMFI - January, 2013

Change the Weather History Date:

Tuesday, January 22, 2013

  Actual Average Record
Temperature  
Mean Temperature -6 °F -  
Max Temperature 0 °F 27 °F 50 °F (1964)
Min Temperature -13 °F 9 °F -30 °F (1936)
Degree Days  
Heating Degree Days 72    
Moisture  
Dew Point -15 °F    
Average Humidity 68    
Maximum Humidity 80    
Minimum Humidity 54    
Precipitation  
Precipitation 0.00 in - - ()
Sea Level Pressure  
Sea Level Pressure 30.35 in    
Wind  
Wind Speed 8 mph (WNW)    
Max Wind Speed 14 mph    
Max Gust Speed -    
Visibility 10 miles    
Events      
Averages and records for this station are not official NWS values.
T = Trace of Precipitation, MM = Missing Value Source: NWS Daily Summary

Daily Weather History Graph

Daily Weather History Graph

Search for Another Location

Airport or City:

Trip Planner

Search our weather history database for the weather conditions in past years. The results will help you decide how hot, cold, wet, or windy it might be!

Date:

Astronomy

Jan. 22, 2013 Rise Set
Actual Time 7:29 AM CST 4:56 PM CST
Civil Twilight 6:57 AM CST 5:28 PM CST
Nautical Twilight 6:21 AM CST 6:03 PM CST
Astronomical Twilight 5:47 AM CST 6:38 PM CST
Moon 1:17 PM CST (1/22) 3:52 AM CST (1/22)
Length of Visible Light 10h 30m
Length of Day
9h 26m
Waxing Gibbous, 83% of the Moon is Illuminated
Jan 22
Waxing Gibbous
Jan 26
Full
Feb 3
Last Quarter
Feb 10
New
Feb 17
First Quarter

Hourly Weather History & Observations

Time (CST) Temp. Windchill Dew Point Humidity Pressure Visibility Wind Dir Wind Speed Gust Speed Precip Events Conditions
12:54 AM -11.0 °F -27.6 °F -18.0 °F 71% 30.31 in 10.0 mi WNW 8.1 mph - N/A   Clear
1:54 AM -11.0 °F -27.6 °F -17.0 °F 75% 30.33 in 10.0 mi West 8.1 mph - N/A   Clear
2:54 AM -11.0 °F -26.2 °F -17.0 °F 75% 30.34 in 10.0 mi West 6.9 mph - N/A   Clear
3:54 AM -11.0 °F -27.6 °F -17.0 °F 75% 30.34 in 10.0 mi West 8.1 mph - N/A   Clear
4:54 AM -11.9 °F -29.9 °F -18.0 °F 74% 30.34 in 10.0 mi WNW 9.2 mph - N/A   Clear
5:54 AM -11.9 °F -31.0 °F -18.0 °F 74% 30.35 in 10.0 mi WNW 10.4 mph - N/A   Clear
6:54 AM -13.0 °F -33.4 °F -18.9 °F 75% 30.37 in 10.0 mi NW 11.5 mph - N/A   Clear
7:54 AM -13.0 °F -33.4 °F -18.9 °F 75% 30.37 in 10.0 mi NW 11.5 mph - N/A   Clear
8:54 AM -11.9 °F -31.0 °F -18.0 °F 74% 30.38 in 10.0 mi NW 10.4 mph - N/A   Clear
9:54 AM -9.0 °F -30.2 °F -17.0 °F 68% 30.39 in 10.0 mi WNW 13.8 mph - N/A   Partly Cloudy
10:54 AM -7.1 °F -25.0 °F -16.1 °F 65% 30.40 in 10.0 mi WNW 10.4 mph - N/A   Clear
11:54 AM -5.1 °F -22.5 °F -15.0 °F 62% 30.39 in 10.0 mi WNW 10.4 mph - N/A   Clear
12:54 PM -2.9 °F -18.8 °F -14.1 °F 59% 30.37 in 10.0 mi NW 9.2 mph - N/A   Clear
1:54 PM -0.9 °F -17.4 °F -13.0 °F 57% 30.36 in 10.0 mi NW 10.4 mph - N/A   Clear
2:54 PM -0.0 °F -14.2 °F -13.0 °F 54% 30.36 in 10.0 mi West 8.1 mph - N/A   Clear
3:54 PM -0.9 °F -16.4 °F -14.1 °F 54% 30.36 in 10.0 mi West 9.2 mph - N/A   Clear
4:54 PM -2.9 °F -17.7 °F -13.0 °F 62% 30.37 in 10.0 mi West 8.1 mph - N/A   Clear
5:54 PM -2.9 °F -13.3 °F -13.0 °F 62% 30.37 in 10.0 mi West 4.6 mph - N/A   Clear
6:54 PM -2.9 °F -16.5 °F -11.9 °F 65% 30.36 in 10.0 mi WNW 6.9 mph - N/A   Clear
7:54 PM -2.9 °F -16.5 °F -11.9 °F 65% 30.34 in 10.0 mi West 6.9 mph - N/A   Clear
8:54 PM -2.9 °F -13.3 °F -11.0 °F 68% 30.34 in 10.0 mi West 4.6 mph - N/A   Clear
9:54 PM -4.0 °F -12.4 °F -11.0 °F 72% 30.34 in 10.0 mi West 3.5 mph - N/A   Clear
10:54 PM -2.9 °F -11.2 °F -9.9 °F 72% 30.32 in 10.0 mi WSW 3.5 mph - N/A   Clear
11:54 PM -5.1 °F - -9.9 °F 80% 30.31 in 10.0 mi Calm Calm - N/A   Mostly Cloudy